weather.gov     
National Weather Service

Terminal Aerodrome Forecast
NWS Homepage
This page is being discontinued on March 12, 2014.
The same data is available at this site. Please update your bookmarks.
Thank you, and we apologize for the inconvenience.
Please send an email to SR-SRH.Webmaster@noaa.gov with any concerns.


Current Version
Previous Version:    01  02  03  04  05  06  07  08  09  10  11  12  13  14  15  16  17  18  19  20  21  22  23  24  25  26  27  28  29  30  
   31  32  33  34  35  36  37  
[Printable]
945
FTUS42 KFFC 220500
TAFPDK
TAF
KPDK 220523Z 2206/2306 30003KT P6SM SCT060 BKN100
      TEMPO 2206/2208 -SHRA BKN060
     FM220800 30004KT P6SM FEW025 BKN060
     FM221500 34010KT P6SM SCT250
     FM221800 35010KT P6SM SCT060
     FM222300 35004KT P6SM SKC=


U.S. Dept. of Commerce
NOAA National Weather Service
1325 East West Highway
Silver Spring, MD 20910
E-mail: w-nws.webmaster@noaa.gov
Page last modified: May 16, 2007
NATIONAL WEATHER SERVICE: for Safety, for Work, for Fun - FOR LIFE